Weather History for KY70 - February, 2013

Change the Weather History Date:

Tuesday, February 26, 2013

  Actual Average (KGRR) Record (KGRR)
Temperature  
Mean Temperature 30 °F 29 °F  
Max Temperature 34 °F 37 °F 64 °F (1944)
Min Temperature 25 °F 22 °F -9 °F (1963)
Degree Days  
Heating Degree Days 36 36  
Month to date heating degree days 998  
Since 1 July heating degree days 4705  
Cooling Degree Days 0 0  
Month to date cooling degree days 0  
Year to date cooling degree days 0  
Moisture  
Dew Point 27 °F    
Average Humidity 86    
Maximum Humidity 100    
Minimum Humidity 71    
Precipitation  
Precipitation 0.07 in 0.07 in 1.37 in (2009)
Month to date precipitation 1.64  
Year to date precipitation 3.73  
Snow  
Snow 0.00 in 0.40 in 4.50 in (1912)
Month to date snowfall 13.9  
Since 1 July snowfall 63.9  
Snow Depth -    
Sea Level Pressure  
Sea Level Pressure 29.80 in    
Wind  
Wind Speed 13 mph (ENE)    
Max Wind Speed 24 mph    
Max Gust Speed 34 mph    
Visibility 7 miles    
Events Snow    
T = Trace of Precipitation, MM = Missing Value Source: NWS Daily Summary

Daily Weather History Graph

Daily Weather History Graph

Search for Another Location

Airport or City:

Trip Planner

Search our weather history database for the weather conditions in past years. The results will help you decide how hot, cold, wet, or windy it might be!

Date:

Astronomy

Feb. 26, 2013 Rise Set
Actual Time 7:20 AM EST 6:26 PM EST
Civil Twilight 6:52 AM EST 6:54 PM EST
Nautical Twilight 6:19 AM EST 7:27 PM EST
Astronomical Twilight 5:46 AM EST 8:00 PM EST
Moon 7:45 PM EST (2/26) 7:20 AM EST (2/26)
Length of Visible Light 12h 02m
Length of Day
11h 05m
Full, 99% of the Moon is Illuminated
Feb 26
Full
Mar 4
Last Quarter
Mar 11
New
Mar 19
First Quarter
Mar 27
Full

Hourly Weather History & Observations

Time (EST) Temp. Windchill Dew Point Humidity Pressure Visibility Wind Dir Wind Speed Gust Speed Precip Events Conditions
12:13 AM 27.7 °F 22.4 °F 22.3 °F 80% 30.10 in 10.0 mi ENE 4.6 mph - N/A   Clear
12:33 AM 25.7 °F 19.0 °F 21.4 °F 84% 30.10 in 10.0 mi NE 5.8 mph - N/A   Clear
12:53 AM 25.7 °F 17.1 °F 21.9 °F 86% 30.08 in 10.0 mi NE 8.1 mph - N/A   Clear
1:13 AM 26.6 °F 18.2 °F 22.3 °F 84% 30.07 in 10.0 mi ENE 8.1 mph - N/A   Clear
1:33 AM 26.4 °F 18.0 °F 22.3 °F 84% 30.07 in 10.0 mi NE 8.1 mph - N/A   Clear
1:53 AM 26.4 °F 18.9 °F 22.3 °F 84% 30.07 in 10.0 mi ENE 6.9 mph - N/A   Clear
2:13 AM 26.8 °F 18.5 °F 22.8 °F 85% 30.06 in 10.0 mi ENE 8.1 mph - N/A   Clear
2:33 AM 26.6 °F 17.5 °F 22.6 °F 85% 30.06 in 10.0 mi East 9.2 mph - N/A   Clear
2:53 AM 26.6 °F 17.5 °F 22.6 °F 85% 30.05 in 7.0 mi East 9.2 mph - N/A   Clear
3:13 AM 26.4 °F 18.0 °F 22.6 °F 86% 30.04 in 10.0 mi East 8.1 mph - N/A   Clear
3:33 AM 26.6 °F 18.2 °F 22.8 °F 86% 30.04 in 10.0 mi East 8.1 mph - N/A   Clear
3:53 AM 26.6 °F 17.5 °F 22.6 °F 85% 30.02 in 10.0 mi ENE 9.2 mph - N/A   Clear
4:13 AM 26.2 °F 15.8 °F 22.5 °F 86% 30.02 in 10.0 mi ENE 11.5 mph - N/A   Clear
4:33 AM 26.4 °F 16.6 °F 22.1 °F 84% 30.00 in 10.0 mi ENE 10.4 mph - N/A   Clear
4:53 AM 26.8 °F 17.1 °F 22.5 °F 84% 30.00 in 10.0 mi ENE 10.4 mph 18.4 mph N/A   Clear
5:13 AM 27.1 °F 15.9 °F 22.3 °F 82% 29.98 in 10.0 mi ENE 13.8 mph 20.7 mph N/A   Clear
5:33 AM 27.5 °F 16.8 °F 22.6 °F 82% 29.98 in 10.0 mi ENE 12.7 mph 19.6 mph N/A   Clear
5:53 AM 27.9 °F 16.8 °F 22.8 °F 81% 29.96 in 10.0 mi ENE 13.8 mph 21.9 mph N/A   Clear
6:13 AM 28.4 °F 17.5 °F 22.8 °F 80% 29.97 in 10.0 mi ENE 13.8 mph 21.9 mph N/A   Clear
6:33 AM 28.4 °F 17.5 °F 22.6 °F 79% 29.97 in 10.0 mi East 13.8 mph 18.4 mph N/A   Clear
6:53 AM 28.4 °F 17.0 °F 22.6 °F 79% 29.94 in 10.0 mi ENE 15.0 mph 21.9 mph N/A   Clear
7:13 AM 28.4 °F 17.0 °F 22.6 °F 79% 29.95 in 10.0 mi ENE 15.0 mph 20.7 mph N/A   Clear
7:33 AM 28.4 °F 17.0 °F 22.6 °F 79% 29.94 in 10.0 mi ENE 15.0 mph 24.2 mph N/A   Clear
7:53 AM 28.6 °F 17.2 °F 22.6 °F 78% 29.93 in 10.0 mi ENE 15.0 mph 23.0 mph N/A   Clear
8:13 AM 28.6 °F 16.8 °F 22.8 °F 79% 29.94 in 10.0 mi East 16.1 mph 23.0 mph N/A   Clear
8:33 AM 28.9 °F 16.9 °F 22.8 °F 78% 29.92 in 10.0 mi ENE 17.3 mph 24.2 mph N/A   Clear
8:53 AM 29.3 °F 17.3 °F 23.0 °F 77% 29.92 in 10.0 mi East 17.3 mph 25.3 mph N/A   Clear
9:13 AM 29.8 °F 19.3 °F 23.0 °F 76% 29.92 in 10.0 mi East 13.8 mph 24.2 mph N/A   Clear
9:33 AM 30.2 °F 19.3 °F 23.4 °F 76% 29.90 in 10.0 mi ENE 15.0 mph 21.9 mph N/A   Clear
9:53 AM 30.9 °F 18.7 °F 23.4 °F 74% 29.85 in 10.0 mi ENE 19.6 mph 28.8 mph N/A   Clear
10:13 AM 31.5 °F 20.1 °F 23.5 °F 73% 29.85 in 10.0 mi ENE 17.3 mph 24.2 mph N/A   Clear
10:34 AM 32.0 °F 20.8 °F 23.7 °F 71% 29.83 in 10.0 mi ENE 17.3 mph 27.6 mph N/A   Clear
10:53 AM 32.0 °F 20.5 °F 23.9 °F 72% 29.82 in 10.0 mi ENE 18.4 mph 26.5 mph N/A   Clear
11:13 AM 32.2 °F 20.7 °F 24.3 °F 73% 29.80 in 10.0 mi ENE 18.4 mph 29.9 mph N/A   Clear
11:33 AM 32.4 °F 20.3 °F 24.4 °F 73% 29.80 in 10.0 mi ENE 20.7 mph 32.2 mph N/A   Clear
11:53 AM 32.5 °F 20.5 °F 25.0 °F 74% 29.78 in 10.0 mi ENE 20.7 mph 29.9 mph N/A   Clear
12:13 PM 32.9 °F 21.0 °F 25.3 °F 74% 29.78 in 10.0 mi ENE 20.7 mph 33.4 mph N/A   Clear
12:33 PM 32.9 °F 21.3 °F 25.7 °F 75% 29.76 in 7.0 mi ENE 19.6 mph 31.1 mph N/A   Mostly Cloudy
12:53 PM 33.3 °F 21.5 °F 25.9 °F 74% 29.75 in 10.0 mi ENE 20.7 mph 28.8 mph N/A   Scattered Clouds
1:13 PM 33.8 °F 21.9 °F 26.2 °F 74% 29.72 in 10.0 mi ENE 21.9 mph 29.9 mph N/A   Scattered Clouds
1:33 PM 34.2 °F 22.1 °F 26.4 °F 73% 29.70 in 10.0 mi ENE 23.0 mph 34.5 mph N/A   Mostly Cloudy
1:53 PM 34.0 °F 22.1 °F 26.6 °F 74% 29.68 in 10.0 mi ENE 21.9 mph 31.1 mph N/A   Overcast
2:13 PM 33.8 °F 21.3 °F 27.1 °F 77% 29.67 in 7.0 mi ENE 24.2 mph 31.1 mph N/A Snow Light Snow
2:34 PM 33.3 °F 23.2 °F 28.4 °F 82% 29.65 in 7.0 mi ENE 15.0 mph 31.1 mph N/A   Overcast
2:53 PM 33.1 °F 21.2 °F 29.3 °F 86% 29.64 in 7.0 mi ENE 20.7 mph 31.1 mph N/A   Overcast
3:13 PM 33.1 °F 21.9 °F 29.5 °F 87% 29.64 in 5.0 mi ENE 18.4 mph 32.2 mph 0.01 in   Overcast
3:33 PM 33.1 °F 21.5 °F 30.2 °F 89% 29.65 in 3.0 mi ENE 19.6 mph 26.5 mph 0.03 in   Overcast
3:42 PM 33.1 °F 21.9 °F 30.6 °F 90% 29.64 in 3.0 mi ENE 18.4 mph 24.2 mph 0.04 in   Overcast
4:16 PM - - - N/A% - 3.0 mi ENE 21.9 mph 28.8 mph N/A   Unknown
4:23 PM 33.1 °F 21.5 °F 31.1 °F 92% 29.63 in 3.0 mi ENE 19.6 mph 28.8 mph 0.02 in   Overcast
4:33 PM 33.1 °F 21.9 °F 31.5 °F 94% 29.63 in 3.0 mi ENE 18.4 mph 28.8 mph 0.02 in   Overcast
4:54 PM 33.1 °F 22.2 °F 31.8 °F 95% 29.64 in 2.5 mi ENE 17.3 mph 25.3 mph 0.03 in Snow Light Snow
5:13 PM 32.9 °F 21.3 °F 32.0 °F 96% 29.63 in 1.2 mi ENE 19.6 mph 33.4 mph N/A Snow Light Snow
5:33 PM 32.5 °F 20.8 °F 32.0 °F 98% 29.62 in 0.5 mi ENE 19.6 mph 27.6 mph N/A Snow Light Snow
5:53 PM 32.5 °F 20.8 °F 32.0 °F 98% 29.62 in 1.0 mi ENE 19.6 mph 28.8 mph N/A Snow Light Snow
6:13 PM 32.5 °F 20.8 °F 32.0 °F 98% 29.61 in 0.8 mi ENE 19.6 mph 32.2 mph N/A Snow Light Snow
6:33 PM 32.7 °F 20.7 °F 32.0 °F 97% 29.60 in 1.0 mi ENE 20.7 mph 33.4 mph N/A Snow Light Snow
6:53 PM 32.9 °F 21.0 °F 32.2 °F 97% 29.60 in 1.5 mi ENE 20.7 mph 29.9 mph N/A Snow Light Snow
7:13 PM 32.9 °F 21.3 °F 32.4 °F 98% 29.60 in 1.0 mi ENE 19.6 mph 31.1 mph N/A Snow Light Snow
7:33 PM 32.9 °F 21.6 °F 32.4 °F 98% 29.60 in 0.8 mi ENE 18.4 mph 26.5 mph N/A Snow Snow
7:53 PM 32.9 °F 21.6 °F 32.5 °F 99% 29.60 in 1.5 mi ENE 18.4 mph 26.5 mph N/A Snow Light Snow
8:13 PM 32.9 °F 22.4 °F 32.5 °F 99% 29.59 in 2.0 mi ENE 16.1 mph 29.9 mph N/A Snow Light Snow
8:33 PM 32.9 °F 22.0 °F 32.5 °F 99% 29.58 in 2.0 mi ENE 17.3 mph 25.3 mph N/A Snow Light Snow
8:53 PM 32.9 °F 21.6 °F 32.9 °F 100% 29.57 in 1.5 mi ENE 18.4 mph 25.3 mph N/A Snow Light Snow
9:13 PM 32.9 °F 22.0 °F 32.9 °F 100% 29.57 in 1.5 mi ENE 17.3 mph 25.3 mph N/A Snow Light Snow
9:33 PM 32.9 °F 22.8 °F 32.9 °F 100% 29.57 in 1.5 mi ENE 15.0 mph 26.5 mph N/A Snow Light Snow
9:53 PM 33.1 °F 23.4 °F 32.9 °F 99% 29.56 in 1.8 mi ENE 13.8 mph 21.9 mph N/A Snow Light Snow
10:13 PM 33.1 °F 22.2 °F 32.9 °F 99% 29.54 in 2.0 mi ENE 17.3 mph 25.3 mph N/A Snow Light Snow
10:33 PM 33.1 °F 22.6 °F 32.9 °F 99% 29.54 in 1.8 mi ENE 16.1 mph 24.2 mph N/A Snow Light Snow
10:53 PM 33.1 °F 22.2 °F 32.9 °F 99% 29.53 in 1.8 mi ENE 17.3 mph 24.2 mph N/A Snow Light Snow
11:13 PM 32.9 °F 23.2 °F 32.9 °F 100% 29.52 in 2.5 mi ENE 13.8 mph 20.7 mph N/A Snow Light Snow
11:53 PM 33.1 °F 22.6 °F 32.9 °F 99% 29.51 in 5.0 mi NE 16.1 mph 23.0 mph N/A Snow Light Snow